This is the latest recevied weather packets stored in our database for station/object KU9TRY. If no packets are shown the sender has not sent any weather packets the latest 10 day(s).
| Time | Temp. | Humidity | Pressure | Rain* | Wind** | Luminosity | Snow |
|---|---|---|---|---|---|---|---|
| 1777740049 | 17.22° C | 35% | 1017.4 hPa | 0 mm | - | 970 W/m² | - |
| 1777739745 | 17.22° C | 32% | 1017.2 hPa | 0 mm | - | 969 W/m² | - |
| 1777739442 | 17.22° C | 32% | 1017.4 hPa | 0 mm | - | 958 W/m² | - |
| 1777739139 | 17.22° C | 35% | 1017.5 hPa | 0 mm | - | 963 W/m² | - |
| 1777738836 | 16.67° C | 38% | 1017.7 hPa | 0 mm | - | 954 W/m² | - |
| 1777738532 | 16.67° C | 36% | 1017.7 hPa | 0 mm | - | 957 W/m² | - |
| 1777738230 | 16.67° C | 38% | 1017.6 hPa | 0 mm | - | 944 W/m² | - |
| 1777737928 | 16.11° C | 37% | 1017.7 hPa | 0 mm | - | 938 W/m² | - |
| 1777737626 | 16.11° C | 36% | 1017.6 hPa | 0 mm | - | 937 W/m² | - |
| 1777737324 | 16.67° C | 35% | 1017.7 hPa | 0 mm | - | 938 W/m² | - |
| 1777737021 | 16.67° C | 37% | 1017.6 hPa | 0 mm | - | 965 W/m² | - |
| 1777736072 | 16.11° C | 36% | 1017.6 hPa | 0 mm | - | 629 W/m² | - |
| 1777735769 | 16.11° C | 40% | 1017.8 hPa | 0 mm | - | 487 W/m² | - |
| 1777735466 | 15.56° C | 41% | 1017.8 hPa | 0 mm | - | 850 W/m² | - |
| 1777735164 | 16.11° C | 41% | 1017.7 hPa | 0 mm | - | 583 W/m² | - |
| 1777734860 | 16.11° C | 42% | 1017.7 hPa | 0 mm | - | 891 W/m² | - |
| 1777734558 | 15.56° C | 41% | 1017.7 hPa | 0 mm | - | 806 W/m² | - |
| 1777734254 | 16.11° C | 39% | 1017.8 hPa | 0 mm | - | 842 W/m² | - |
| 1777733951 | 15.56° C | 39% | 1017.6 hPa | 0 mm | - | 682 W/m² | - |
| 1777733647 | 15.56° C | 41% | 1017.8 hPa | 0 mm | - | 753 W/m² | - |
| 1777733343 | 15.56° C | 41% | 1017.6 hPa | 0 mm | - | 799 W/m² | - |
| 1777733041 | 15.56° C | 43% | 1017.8 hPa | 0 mm | - | 761 W/m² | - |
| 1777732737 | 15° C | 42% | 1017.6 hPa | 0 mm | - | 725 W/m² | - |
| 1777732434 | 15° C | 45% | 1017.6 hPa | 0 mm | - | 703 W/m² | - |
| 1777732132 | 15° C | 44% | 1017.7 hPa | 0 mm | - | 690 W/m² | - |
* Rain latest hour (hover to see other rain measurements)
** Current wind speed in m/s (hover to see current wind gust speed)